Content
SEND FEEDBACK

Daily
Averages
Monthly
Summary
Spain

ZARAGOZA, SPAIN


Home > Europe > Spain
Elevation: 846 feet     Latitude: 41 40N     Longitude: 001 01W

WEATHER
 
SELECT A DAY
Number of Records: 323,059;   Date Range: 7/1/96 - 12/25/14
 
SHARE

PRINT THIS DATA

[ ← Previous Day ]
WEATHER ALMANAC - JULY 23, 2013
[ Next Day → ]
[ °C ]   °F
Weather ElementAverageHighLow
Temperature82 °F95 °F (4:30 pm)71.6 °F (8:00 am)
Dewpoint60.6 °F68 °F (11:30 pm)51.8 °F (4:30 pm)
Humidity50.7 %83 % (11:30 pm)23 % (4:30 pm)
Barometer29.93 in29.98 in (8:00 am)29.82 in (8:00 pm)
Wind Speed7.1 mph13.8 mph (6:30 pm)
Weather ElementAverage
Visibility6.2 mi
Wind DirectionESE (100 °)

Weather ElementTotal
Precipitation---
Cooling Degree Days18.3 (Base 65)
Growing Degree Days33.3 (Base 50)
Averaged from 50 records on July 23, 2013
WEATHER CONDITIONS BREAKOUT
WIND DIRECTION BREAKOUT
WEATHER BY HOUR - JULY 23, 2013
[ °C ]   °F
Local TimeTemperatureDewpointHumidityBarometerVisibilityWind DirectionWind SpeedGust SpeedPrecipitationEventsConditions
12:30 AM78.8 °F60.8 °F54 %29.95 inESE (110°)8.1 mphClear
1:00 AM78.8 °F60.8 °F54 %29.95 inEast (100°)10.4 mphClear
1:30 AM77.0 °F62.6 °F61 %29.95 inESE (110°)9.2 mphClear
2:00 AM78.0 °F62.0 °F48 %29.91 in6.0 miESE (120°)10.4 mph
2:00 AM77.0 °F62.6 °F61 %29.95 inESE (110°)10.4 mphClear
2:30 AM77.0 °F62.6 °F61 %29.95 inESE (110°)6.9 mphClear
3:00 AM75.2 °F62.6 °F65 %29.95 inEast (90°)6.9 mphClear
3:30 AM75.2 °F62.6 °F65 %29.95 inNE (50°)4.6 mphClear
4:00 AM73.4 °F62.6 °F69 %29.95 inENE (70°)5.8 mphClear
4:30 AM73.4 °F62.6 °F69 %29.95 inENE (70°)5.8 mphClear
5:00 AM73.4 °F62.6 °F69 %29.95 inENE (70°)5.8 mphClear
5:30 AM73.4 °F62.6 °F69 %29.95 in6.2 miENE (70°)5.8 mphPartly Cloudy
6:00 AM73.4 °F62.6 °F69 %29.95 in6.2 miENE (70°)5.8 mphPartly Cloudy
6:30 AM73.4 °F62.6 °F69 %29.95 in6.2 miENE (70°)5.8 mphPartly Cloudy
7:00 AM73.4 °F62.6 °F69 %29.95 in6.2 miENE (70°)5.8 mphPartly Cloudy
7:30 AM73.4 °F62.6 °F69 %29.95 in6.2 miENE (70°)5.8 mphPartly Cloudy
8:00 AM74.0 °F65.0 °F68 %29.93 in6.0 miNNW (330°)2.3 mphScattered Clouds
8:00 AM71.6 °F62.6 °F73 %29.98 in6.2 miVariable2.3 mphPartly Cloudy
8:30 AM73.4 °F62.6 °F69 %29.98 in6.2 miVariable1.2 mphPartly Cloudy
9:00 AM75.2 °F62.6 °F65 %29.98 in6.2 miVariable1.2 mphPartly Cloudy
9:30 AM77.0 °F62.6 °F61 %29.98 in6.2 miESE (110°)1.2 mphPartly Cloudy
10:00 AM77.0 °F62.6 °F61 %29.98 in6.2 miVariable1.2 mphPartly Cloudy
10:30 AM80.6 °F62.6 °F54 %29.98 in6.2 miNE (40°)1.2 mphPartly Cloudy
11:00 AM82.4 °F62.6 °F51 %29.98 in6.2 miNE (40°)2.3 mphPartly Cloudy
11:30 AM82.4 °F62.6 °F51 %29.98 in6.2 miNE (50°)6.9 mphPartly Cloudy
12:00 PM84.2 °F62.6 °F48 %29.98 in6.2 miEast (80°)5.8 mphPartly Cloudy
12:30 PM84.2 °F64.4 °F51 %29.98 in6.2 miEast (80°)6.9 mphPartly Cloudy
1:30 PM87.8 °F62.6 °F43 %29.95 in6.2 miEast (80°)11.5 mphPartly Cloudy
2:00 PM87.0 °F60.0 °F30 %29.88 in6.0 miEast (80°)9.2 mphScattered Clouds
2:00 PM89.6 °F60.8 °F38 %29.95 in6.2 miEast (80°)9.2 mphPartly Cloudy
2:30 PM91.4 °F57.2 °F31 %29.92 in6.2 miENE (70°)9.2 mphPartly Cloudy
3:00 PM91.4 °F57.2 °F31 %29.92 in6.2 miEast (90°)10.4 mphPartly Cloudy
3:30 PM93.2 °F55.4 °F28 %29.92 in6.2 miEast (100°)6.9 mphPartly Cloudy
4:00 PM93.2 °F53.6 °F26 %29.89 in6.2 miEast (80°)9.2 mphPartly Cloudy
4:30 PM95.0 °F51.8 °F23 %29.89 in6.2 miEast (90°)9.2 mphPartly Cloudy
5:00 PM95.0 °F51.8 °F23 %29.89 in6.2 miESE (120°)11.5 mphPartly Cloudy
5:30 PM93.2 °F51.8 °F24 %29.89 in6.2 miSE (130°)12.7 mphPartly Cloudy
6:00 PM93.2 °F53.6 °F26 %29.86 in6.2 miSE (140°)11.5 mphPartly Cloudy
6:30 PM91.4 °F55.4 °F29 %29.86 in6.2 miSSE (160°)13.8 mphPartly Cloudy
7:00 PM91.4 °F51.8 °F26 %29.86 in6.2 miSouth (170°)8.1 mphPartly Cloudy
7:30 PM91.4 °F53.6 °F28 %29.86 in6.2 miSSE (150°)5.8 mphPartly Cloudy
8:00 PM90.0 °F62.0 °F30 %29.82 in6.0 miEast (80°)2.3 mphScattered Clouds
8:00 PM91.4 °F55.4 °F29 %29.89 in6.2 miESE (120°)6.9 mphPartly Cloudy
8:30 PM89.6 °F55.4 °F31 %29.89 in6.2 miESE (110°)8.1 mphThunderstormThunderstorm
8:37 PM87.8 °F64.4 °F46 %29.89 in5.0 miSE (130°)8.1 mphRain-ThunderstormThunderstorms and Rain
9:00 PM82.4 °F64.4 °F54 %29.89 in6.2 miEast (100°)8.1 mphThunderstormThunderstorm
9:30 PM80.6 °F64.4 °F58 %29.89 in6.2 miSE (140°)10.4 mphThunderstormThunderstorm
10:00 PM80.6 °F62.6 °F54 %29.92 in6.2 miSE (130°)6.9 mphPartly Cloudy
10:30 PM75.2 °F66.2 °F73 %29.95 in6.2 miWest (270°)8.1 mphPartly Cloudy
11:30 PM73.4 °F68.0 °F83 %29.98 in6.2 miWNW (290°)10.4 mphPartly Cloudy
Hourly data recorded from LEZG, located miles away from Zaragoza, Spain







STORIES FROM OUR PARTNERS